﻿測定場所 (Monitoring sites),日付 (Measurement date),時間 (Measurement time),線量率 最大値 (max) μGy/h,線量率 最小値 (min) μGy/h,線量率 平均値 (average) μGy/h,
江戸川 (Edogawa),2016-06-19,23:01～24:00,0.0723,0.0623,0.0680,
江戸川 (Edogawa),2016-06-19,22:01～23:00,0.0678,0.0566,0.0619,
江戸川 (Edogawa),2016-06-19,21:01～22:00,0.0639,0.0539,0.0586,
江戸川 (Edogawa),2016-06-19,20:01～21:00,0.0618,0.0554,0.0580,
江戸川 (Edogawa),2016-06-19,19:01～20:00,0.0603,0.0535,0.0576,
江戸川 (Edogawa),2016-06-19,18:01～19:00,0.0611,0.0542,0.0578,
江戸川 (Edogawa),2016-06-19,17:01～18:00,0.0603,0.0546,0.0574,
江戸川 (Edogawa),2016-06-19,16:01～17:00,0.0625,0.0533,0.0577,
江戸川 (Edogawa),2016-06-19,15:01～16:00,0.0632,0.0548,0.0573,
江戸川 (Edogawa),2016-06-19,14:01～15:00,0.0600,0.0544,0.0574,
江戸川 (Edogawa),2016-06-19,13:01～14:00,0.0610,0.0537,0.0575,
江戸川 (Edogawa),2016-06-19,12:01～13:00,0.0614,0.0549,0.0577,
江戸川 (Edogawa),2016-06-19,11:01～12:00,0.0604,0.0537,0.0573,
江戸川 (Edogawa),2016-06-19,10:01～11:00,0.0602,0.0535,0.0570,
江戸川 (Edogawa),2016-06-19,09:01～10:00,0.0593,0.0528,0.0572,
江戸川 (Edogawa),2016-06-19,08:01～09:00,0.0600,0.0535,0.0572,
江戸川 (Edogawa),2016-06-19,07:01～08:00,0.0604,0.0544,0.0575,
江戸川 (Edogawa),2016-06-19,06:01～07:00,0.0602,0.0539,0.0570,
江戸川 (Edogawa),2016-06-19,05:01～06:00,0.0602,0.0545,0.0569,
江戸川 (Edogawa),2016-06-19,04:01～05:00,0.0632,0.0542,0.0575,
江戸川 (Edogawa),2016-06-19,03:01～04:00,0.0597,0.0549,0.0570,
江戸川 (Edogawa),2016-06-19,02:01～03:00,0.0612,0.0538,0.0573,
江戸川 (Edogawa),2016-06-19,01:01～02:00,0.0612,0.0540,0.0573,
江戸川 (Edogawa),2016-06-19,00:01～01:00,0.0602,0.0541,0.0575,
江戸川 (Edogawa),2016-06-18,23:01～24:00,0.0608,0.0545,0.0570,
江戸川 (Edogawa),2016-06-18,22:01～23:00,0.0602,0.0531,0.0570,
江戸川 (Edogawa),2016-06-18,21:01～22:00,0.0607,0.0537,0.0569,
江戸川 (Edogawa),2016-06-18,20:01～21:00,0.0606,0.0528,0.0574,
江戸川 (Edogawa),2016-06-18,19:01～20:00,0.0620,0.0539,0.0574,
江戸川 (Edogawa),2016-06-18,18:01～19:00,0.0614,0.0539,0.0570,
江戸川 (Edogawa),2016-06-18,17:01～18:00,0.0604,0.0552,0.0574,
江戸川 (Edogawa),2016-06-18,16:01～17:00,0.0606,0.0538,0.0576,
江戸川 (Edogawa),2016-06-18,15:01～16:00,0.0600,0.0547,0.0572,
江戸川 (Edogawa),2016-06-18,14:01～15:00,0.0610,0.0539,0.0574,
江戸川 (Edogawa),2016-06-18,13:01～14:00,0.0597,0.0545,0.0570,
江戸川 (Edogawa),2016-06-18,12:01～13:00,0.0601,0.0534,0.0570,
江戸川 (Edogawa),2016-06-18,11:01～12:00,0.0603,0.0544,0.0575,
江戸川 (Edogawa),2016-06-18,10:01～11:00,0.0600,0.0547,0.0569,
江戸川 (Edogawa),2016-06-18,09:01～10:00,0.0595,0.0534,0.0567,
江戸川 (Edogawa),2016-06-18,08:01～09:00,0.0609,0.0529,0.0570,
江戸川 (Edogawa),2016-06-18,07:01～08:00,0.0613,0.0528,0.0570,
江戸川 (Edogawa),2016-06-18,06:01～07:00,0.0600,0.0540,0.0573,
江戸川 (Edogawa),2016-06-18,05:01～06:00,0.0611,0.0546,0.0573,
江戸川 (Edogawa),2016-06-18,04:01～05:00,0.0603,0.0534,0.0566,
江戸川 (Edogawa),2016-06-18,03:01～04:00,0.0606,0.0535,0.0562,
江戸川 (Edogawa),2016-06-18,02:01～03:00,0.0606,0.0526,0.0565,
江戸川 (Edogawa),2016-06-18,01:01～02:00,0.0589,0.0531,0.0562,
江戸川 (Edogawa),2016-06-18,00:01～01:00,0.0588,0.0536,0.0563,
江戸川 (Edogawa),2016-06-17,23:01～24:00,0.0594,0.0537,0.0564,
江戸川 (Edogawa),2016-06-17,22:01～23:00,0.0595,0.0540,0.0567,
江戸川 (Edogawa),2016-06-17,21:01～22:00,0.0597,0.0538,0.0569,
江戸川 (Edogawa),2016-06-17,20:01～21:00,0.0605,0.0543,0.0570,
江戸川 (Edogawa),2016-06-17,19:01～20:00,0.0610,0.0533,0.0567,
江戸川 (Edogawa),2016-06-17,18:01～19:00,0.0608,0.0528,0.0565,
江戸川 (Edogawa),2016-06-17,17:01～18:00,0.0596,0.0536,0.0563,
江戸川 (Edogawa),2016-06-17,16:01～17:00,0.0597,0.0526,0.0564,
江戸川 (Edogawa),2016-06-17,15:01～16:00,0.0622,0.0534,0.0564,
江戸川 (Edogawa),2016-06-17,14:01～15:00,0.0609,0.0520,0.0564,
江戸川 (Edogawa),2016-06-17,13:01～14:00,0.0595,0.0525,0.0564,
江戸川 (Edogawa),2016-06-17,12:01～13:00,0.0602,0.0530,0.0561,
江戸川 (Edogawa),2016-06-17,11:01～12:00,0.0592,0.0523,0.0560,
江戸川 (Edogawa),2016-06-17,10:01～11:00,0.0583,0.0521,0.0556,
江戸川 (Edogawa),2016-06-17,09:01～10:00,0.0594,0.0530,0.0557,
江戸川 (Edogawa),2016-06-17,08:01～09:00,0.0591,0.0525,0.0557,
江戸川 (Edogawa),2016-06-17,07:01～08:00,0.0606,0.0523,0.0558,
江戸川 (Edogawa),2016-06-17,06:01～07:00,0.0584,0.0527,0.0552,
江戸川 (Edogawa),2016-06-17,05:01～06:00,0.0583,0.0520,0.0553,
江戸川 (Edogawa),2016-06-17,04:01～05:00,0.0582,0.0522,0.0552,
江戸川 (Edogawa),2016-06-17,03:01～04:00,0.0591,0.0528,0.0564,
江戸川 (Edogawa),2016-06-17,02:01～03:00,0.0601,0.0531,0.0569,
江戸川 (Edogawa),2016-06-17,01:01～02:00,0.0609,0.0537,0.0570,
江戸川 (Edogawa),2016-06-17,00:01～01:00,0.0627,0.0540,0.0571,
江戸川 (Edogawa),2016-06-16,23:01～24:00,0.0614,0.0546,0.0582,
江戸川 (Edogawa),2016-06-16,22:01～23:00,0.0628,0.0551,0.0583,
江戸川 (Edogawa),2016-06-16,21:01～22:00,0.0629,0.0550,0.0587,
江戸川 (Edogawa),2016-06-16,20:01～21:00,0.0633,0.0557,0.0596,
江戸川 (Edogawa),2016-06-16,19:01～20:00,0.0654,0.0573,0.0609,
江戸川 (Edogawa),2016-06-16,18:01～19:00,0.0676,0.0567,0.0618,
江戸川 (Edogawa),2016-06-16,17:01～18:00,0.0605,0.0537,0.0575,
江戸川 (Edogawa),2016-06-16,16:01～17:00,0.0601,0.0528,0.0561,
江戸川 (Edogawa),2016-06-16,15:01～16:00,0.0590,0.0531,0.0564,
江戸川 (Edogawa),2016-06-16,14:01～15:00,0.0612,0.0533,0.0566,
江戸川 (Edogawa),2016-06-16,13:01～14:00,0.0612,0.0554,0.0580,
江戸川 (Edogawa),2016-06-16,12:01～13:00,0.0592,0.0530,0.0566,
江戸川 (Edogawa),2016-06-16,11:01～12:00,0.0598,0.0538,0.0562,
江戸川 (Edogawa),2016-06-16,10:01～11:00,0.0604,0.0528,0.0574,
江戸川 (Edogawa),2016-06-16,09:01～10:00,0.0625,0.0524,0.0575,
江戸川 (Edogawa),2016-06-16,08:01～09:00,0.0590,0.0536,0.0561,
江戸川 (Edogawa),2016-06-16,07:01～08:00,0.0599,0.0525,0.0559,
江戸川 (Edogawa),2016-06-16,06:01～07:00,0.0596,0.0529,0.0561,
江戸川 (Edogawa),2016-06-16,05:01～06:00,0.0590,0.0525,0.0559,
江戸川 (Edogawa),2016-06-16,04:01～05:00,0.0589,0.0525,0.0560,
江戸川 (Edogawa),2016-06-16,03:01～04:00,0.0595,0.0532,0.0558,
江戸川 (Edogawa),2016-06-16,02:01～03:00,0.0600,0.0532,0.0563,
江戸川 (Edogawa),2016-06-16,01:01～02:00,0.0595,0.0530,0.0563,
江戸川 (Edogawa),2016-06-16,00:01～01:00,0.0595,0.0534,0.0561,
江戸川 (Edogawa),2016-06-15,23:01～24:00,0.0593,0.0527,0.0558,
江戸川 (Edogawa),2016-06-15,22:01～23:00,0.0590,0.0531,0.0558,
江戸川 (Edogawa),2016-06-15,21:01～22:00,0.0589,0.0525,0.0556,
江戸川 (Edogawa),2016-06-15,20:01～21:00,0.0597,0.0522,0.0559,
江戸川 (Edogawa),2016-06-15,19:01～20:00,0.0611,0.0527,0.0558,
江戸川 (Edogawa),2016-06-15,18:01～19:00,0.0596,0.0528,0.0562,
江戸川 (Edogawa),2016-06-15,17:01～18:00,0.0615,0.0527,0.0558,
江戸川 (Edogawa),2016-06-15,16:01～17:00,0.0594,0.0511,0.0561,
江戸川 (Edogawa),2016-06-15,15:01～16:00,0.0594,0.0511,0.0556,
江戸川 (Edogawa),2016-06-15,14:01～15:00,0.0594,0.0510,0.0561,
江戸川 (Edogawa),2016-06-15,13:01～14:00,0.0589,0.0528,0.0560,
江戸川 (Edogawa),2016-06-15,12:01～13:00,0.0589,0.0528,0.0561,
江戸川 (Edogawa),2016-06-15,11:01～12:00,0.0595,0.0534,0.0560,
江戸川 (Edogawa),2016-06-15,10:01～11:00,0.0618,0.0529,0.0567,
江戸川 (Edogawa),2016-06-15,09:01～10:00,0.0586,0.0515,0.0555,
江戸川 (Edogawa),2016-06-15,08:01～09:00,0.0585,0.0536,0.0558,
江戸川 (Edogawa),2016-06-15,07:01～08:00,0.0597,0.0527,0.0562,
江戸川 (Edogawa),2016-06-15,06:01～07:00,0.0595,0.0529,0.0557,
江戸川 (Edogawa),2016-06-15,05:01～06:00,0.0592,0.0535,0.0560,
江戸川 (Edogawa),2016-06-15,04:01～05:00,0.0580,0.0534,0.0560,
江戸川 (Edogawa),2016-06-15,03:01～04:00,0.0582,0.0515,0.0556,
江戸川 (Edogawa),2016-06-15,02:01～03:00,0.0596,0.0526,0.0561,
江戸川 (Edogawa),2016-06-15,01:01～02:00,0.0608,0.0533,0.0560,
江戸川 (Edogawa),2016-06-15,00:01～01:00,0.0597,0.0524,0.0560,
江戸川 (Edogawa),2016-06-14,23:01～24:00,0.0581,0.0529,0.0557,
江戸川 (Edogawa),2016-06-14,22:01～23:00,0.0595,0.0515,0.0558,
江戸川 (Edogawa),2016-06-14,21:01～22:00,0.0596,0.0527,0.0560,
江戸川 (Edogawa),2016-06-14,20:01～21:00,0.0582,0.0519,0.0557,
江戸川 (Edogawa),2016-06-14,19:01～20:00,0.0577,0.0526,0.0556,
江戸川 (Edogawa),2016-06-14,18:01～19:00,0.0585,0.0523,0.0556,
江戸川 (Edogawa),2016-06-14,17:01～18:00,0.0590,0.0518,0.0556,
江戸川 (Edogawa),2016-06-14,16:01～17:00,0.0593,0.0517,0.0558,
江戸川 (Edogawa),2016-06-14,15:01～16:00,0.0609,0.0526,0.0558,
江戸川 (Edogawa),2016-06-14,14:01～15:00,0.0595,0.0509,0.0564,
江戸川 (Edogawa),2016-06-14,13:01～14:00,0.0603,0.0529,0.0558,
江戸川 (Edogawa),2016-06-14,12:01～13:00,0.0595,0.0525,0.0556,
江戸川 (Edogawa),2016-06-14,11:01～12:00,0.0587,0.0512,0.0557,
江戸川 (Edogawa),2016-06-14,10:01～11:00,0.0578,0.0514,0.0552,
江戸川 (Edogawa),2016-06-14,09:01～10:00,0.0582,0.0529,0.0553,
江戸川 (Edogawa),2016-06-14,08:01～09:00,0.0603,0.0522,0.0554,
江戸川 (Edogawa),2016-06-14,07:01～08:00,0.0597,0.0528,0.0558,
江戸川 (Edogawa),2016-06-14,06:01～07:00,0.0586,0.0530,0.0555,
江戸川 (Edogawa),2016-06-14,05:01～06:00,0.0597,0.0504,0.0553,
江戸川 (Edogawa),2016-06-14,04:01～05:00,0.0583,0.0525,0.0552,
江戸川 (Edogawa),2016-06-14,03:01～04:00,0.0584,0.0508,0.0555,
江戸川 (Edogawa),2016-06-14,02:01～03:00,0.0585,0.0503,0.0551,
江戸川 (Edogawa),2016-06-14,01:01～02:00,0.0589,0.0526,0.0551,
江戸川 (Edogawa),2016-06-14,00:01～01:00,0.0588,0.0521,0.0553,
江戸川 (Edogawa),2016-06-13,23:01～24:00,0.0580,0.0523,0.0552,
江戸川 (Edogawa),2016-06-13,22:01～23:00,0.0577,0.0525,0.0550,
江戸川 (Edogawa),2016-06-13,21:01～22:00,0.0577,0.0525,0.0550,
江戸川 (Edogawa),2016-06-13,20:01～21:00,0.0589,0.0518,0.0553,
江戸川 (Edogawa),2016-06-13,19:01～20:00,0.0608,0.0534,0.0568,
江戸川 (Edogawa),2016-06-13,18:01～19:00,0.0664,0.0539,0.0610,
江戸川 (Edogawa),2016-06-13,17:01～18:00,0.0672,0.0608,0.0640,
江戸川 (Edogawa),2016-06-13,16:01～17:00,0.0684,0.0605,0.0647,
江戸川 (Edogawa),2016-06-13,15:01～16:00,0.0687,0.0593,0.0632,
江戸川 (Edogawa),2016-06-13,14:01～15:00,0.0626,0.0572,0.0599,
江戸川 (Edogawa),2016-06-13,13:01～14:00,0.0653,0.0568,0.0607,
江戸川 (Edogawa),2016-06-13,12:01～13:00,0.0632,0.0563,0.0604,
江戸川 (Edogawa),2016-06-13,11:01～12:00,0.0643,0.0561,0.0601,
江戸川 (Edogawa),2016-06-13,10:01～11:00,0.0653,0.0563,0.0607,
江戸川 (Edogawa),2016-06-13,09:01～10:00,0.0632,0.0556,0.0593,
江戸川 (Edogawa),2016-06-13,08:01～09:00,0.0627,0.0556,0.0592,
江戸川 (Edogawa),2016-06-13,07:01～08:00,0.0649,0.0566,0.0601,
江戸川 (Edogawa),2016-06-13,06:01～07:00,0.0684,0.0561,0.0620,
江戸川 (Edogawa),2016-06-13,05:01～06:00,0.0679,0.0605,0.0638,
江戸川 (Edogawa),2016-06-13,04:01～05:00,0.0673,0.0600,0.0643,
江戸川 (Edogawa),2016-06-13,03:01～04:00,0.0677,0.0588,0.0635,
江戸川 (Edogawa),2016-06-13,02:01～03:00,0.0657,0.0594,0.0622,
江戸川 (Edogawa),2016-06-13,01:01～02:00,0.0648,0.0581,0.0609,
江戸川 (Edogawa),2016-06-13,00:01～01:00,0.0632,0.0554,0.0589,
